Content
SEND FEEDBACK

Daily
Averages
Monthly
Summary
United States of America

HAMPTON, VIRGINIA


Home > North America > United States > Virginia
Elevation: 12 feet     Latitude: 37 08N     Longitude: 076 37W

WEATHER
 
SELECT A DAY
Number of Records: 157,313;   Date Range: 1/3/95 - 12/18/14
 
SHARE

PRINT THIS DATA

[ ← Previous Day ]
WEATHER ALMANAC - JANUARY 31, 2013
[ Next Day → ]
[ °C ]   °F
Weather ElementAverageHighLow
Temperature56.2 °F68.5 °F (1:55 am)36.7 °F (11:55 pm)
Dewpoint44.7 °F62.6 °F (2:11 am)17.4 °F (5:55 pm)
Humidity67.9 %88 % (2:13 am)30 % (2:55 pm)
Barometer29.51 in29.98 in (11:55 pm)29.28 in (1:55 am)
Wind Speed16.3 mph21.9 mph (1:46 am)
Wind Gust38 mph (1:52 am)
Weather ElementAverage
Visibility8.4 mi
Wind DirectionWSW (242.6 °)

Weather ElementTotal
Precipitation0.47 in
Heating Degree Days12.4 (Base 65)
Growing Degree Days2.6 (Base 50)
Averaged from 50 records on January 31, 2013
WEATHER CONDITIONS BREAKOUT
WIND DIRECTION BREAKOUT
WEATHER BY HOUR - JANUARY 31, 2013
[ °C ]   °F
Local TimeTemperatureDewpointHumidityBarometerVisibilityWind DirectionWind SpeedGust SpeedPrecipitationEventsConditions
1:46 AM68.0 °F60.8 °F78 %29.29 in10.0 miSouth (170°)21.9 mph36.8 mphLight Drizzle
1:52 AM68.0 °F60.8 °F78 %29.29 in10.0 miSouth (180°)19.6 mph38.0 mphLight Drizzle
1:54 AM68.0 °F60.8 °F78 %29.29 in10.0 miSouth (180°)19.6 mph38.0 mphLight Drizzle
1:55 AM68.5 °F61.0 °F77 %29.28 in10.0 miSouth (190°)21.9 mph38.0 mph0.00 inLight Drizzle
1:58 AM68.0 °F60.8 °F78 %29.29 in10.0 miSouth (180°)20.7 mph34.5 mphLight Drizzle
1:59 AM68.0 °F60.8 °F78 %29.29 in10.0 miSouth (180°)19.6 mph34.5 mphLight Drizzle
2:00 AM68.0 °F60.8 °F78 %29.28 in10.0 miSouth (180°)20.7 mph34.5 mphLight Drizzle
2:11 AM68.0 °F62.6 °F83 %29.32 in6.0 miSSW (200°)15.0 mph29.9 mphRainLight Rain
2:13 AM66.2 °F62.6 °F88 %29.33 in2.0 miSW (220°)16.1 mph29.9 mphRainLight Rain
2:14 AM66.2 °F62.6 °F88 %29.34 in1.5 miSW (220°)18.4 mph29.9 mphRainHeavy Rain
2:19 AM64.4 °F60.8 °F88 %29.35 in0.8 miWest (260°)21.9 mph29.9 mphRainRain
2:22 AM64.4 °F60.8 °F88 %29.36 in1.0 miWest (260°)19.6 mph36.8 mphRainLight Rain
2:25 AM62.6 °F59.0 °F88 %29.36 in2.0 miWSW (250°)18.4 mph36.8 mphRainLight Rain
2:26 AM62.6 °F59.0 °F88 %29.36 in2.5 miWest (260°)19.6 mph36.8 mphRainLight Rain
2:27 AM62.6 °F59.0 °F88 %29.37 in2.5 miWSW (250°)19.6 mph36.8 mphOvercast
2:28 AM62.6 °F59.0 °F88 %29.38 in3.0 miWSW (250°)17.3 mph36.8 mphOvercast
2:32 AM62.6 °F59.0 °F88 %29.36 in5.0 miWest (260°)17.3 mph36.8 mphRainLight Rain
2:48 AM60.8 °F55.4 °F82 %29.37 in7.0 miWSW (250°)18.4 mph32.2 mphOvercast
2:50 AM60.8 °F55.4 °F82 %29.38 in7.0 miWSW (240°)17.3 mph32.2 mphRainLight Rain
2:55 AM60.1 °F55.9 °F86 %29.38 in8.0 miWSW (240°)18.4 mph27.6 mph0.44 inRainLight Rain
3:18 AM59.0 °F53.6 °F82 %29.36 in10.0 miWSW (240°)13.8 mph33.4 mphMostly Cloudy
3:20 AM59.0 °F53.6 °F82 %29.36 in10.0 miWSW (240°)13.8 mph24.2 mphRainLight Rain
3:21 AM59.0 °F53.6 °F82 %29.36 in10.0 miWSW (240°)12.7 mph24.2 mphMostly Cloudy
3:22 AM59.0 °F53.6 °F82 %29.36 in10.0 miWSW (240°)12.7 mph21.9 mphRainLight Rain
3:37 AM59.0 °F51.8 °F77 %29.37 in10.0 miSW (230°)9.2 mph27.6 mphMostly Cloudy
3:44 AM57.2 °F51.8 °F82 %29.36 in10.0 miSW (230°)12.7 mph24.2 mphRainLight Rain
3:55 AM57.7 °F51.1 °F78 %29.36 in10.0 miSW (230°)17.3 mph28.8 mph0.02 inLight Drizzle
4:13 AM57.2 °F50.0 °F77 %29.37 in10.0 miSW (220°)13.8 mph25.3 mphOvercast
4:55 AM56.3 °F48.2 °F74 %29.39 in10.0 miWSW (240°)16.1 mph34.5 mph0.00 inOvercast
5:55 AM54.9 °F46.4 °F73 %29.44 in10.0 miWSW (240°)15.0 mph25.3 mphScattered Clouds
6:26 AM53.6 °F46.4 °F77 %29.48 in10.0 miWest (260°)15.0 mph31.1 mphRainLight Rain
6:36 AM53.6 °F46.4 °F77 %29.49 in10.0 miWest (260°)15.0 mph25.3 mphMostly Cloudy
6:55 AM52.3 °F42.3 °F69 %29.51 in10.0 miWest (260°)17.3 mph25.3 mph0.01 inMostly Cloudy
7:55 AM50.4 °F37.8 °F62 %29.57 in10.0 miWest (270°)16.1 mph26.5 mphClear
8:55 AM50.0 °F32.0 °F50 %29.61 in10.0 miWest (270°)15.0 mph31.1 mphPartly Cloudy
9:55 AM50.0 °F32.0 °F50 %29.68 in10.0 miWest (260°)17.3 mph25.3 mphPartly Cloudy
10:55 AM48.2 °F30.2 °F50 %29.70 in10.0 miWest (260°)20.7 mph29.9 mphPartly Cloudy
11:55 AM48.2 °F24.8 °F40 %29.72 in10.0 miWest (260°)17.3 mph29.9 mphPartly Cloudy
12:55 PM50.0 °F23.0 °F35 %29.73 in10.0 miWest (260°)17.3 mph34.5 mphPartly Cloudy
1:55 PM48.2 °F21.2 °F34 %29.72 in10.0 miWest (260°)17.3 mph29.9 mphPartly Cloudy
2:55 PM50.0 °F19.4 °F30 %29.75 in10.0 miWest (260°)16.1 mph32.2 mphPartly Cloudy
3:55 PM48.6 °F21.7 °F35 %29.78 in10.0 miWNW (300°)17.3 mph24.2 mph
4:55 PM47.1 °F18.7 °F32 %29.82 in10.0 miWest (280°)13.8 mph27.6 mphPartly Cloudy
5:55 PM44.4 °F17.4 °F34 %29.86 in10.0 miWest (280°)15.0 mph24.2 mphClear
6:55 PM43.0 °F18.7 °F38 %29.90 in10.0 miWNW (290°)18.4 mph24.2 mphClear
7:55 PM41.5 °F18.9 °F40 %29.93 in10.0 miWNW (290°)19.6 mph26.5 mphClear
8:55 PM39.9 °F17.8 °F41 %29.94 in10.0 miWest (280°)8.1 mphClear
9:55 PM38.1 °F18.0 °F44 %29.95 in10.0 miWest (260°)4.6 mphClear
10:55 PM37.6 °F19.9 °F49 %29.97 in10.0 miWSW (240°)5.8 mphClear
11:55 PM36.7 °F19.8 °F50 %29.98 in10.0 miWest (260°)8.1 mphClear
Hourly data recorded from KFAF, located miles away from Hampton, Virginia







STORIES FROM OUR PARTNERS